Weather History for Juneau, WI

Change the Weather History Date:

Wednesday, May 8, 2013

  Actual Average Record
Temperature  
Mean Temperature 62 °F -  
Max Temperature 77 °F 62 °F 80 °F (1979)
Min Temperature 48 °F 44 °F 32 °F (2006)
Degree Days  
Heating Degree Days 2    
Growing Degree Days 12 (Base 50)    
Moisture  
Dew Point 38 °F    
Average Humidity 42    
Maximum Humidity 74    
Minimum Humidity 16    
Precipitation  
Precipitation 0.00 in - - ()
Sea Level Pressure  
Sea Level Pressure 30.02 in    
Wind  
Wind Speed 3 mph (SE)    
Max Wind Speed 8 mph    
Max Gust Speed -    
Visibility 10 miles    
Events      
Averages and records for this station are not official NWS values.
T = Trace of Precipitation, MM = Missing Value Source: NWS Daily Summary

Daily Weather History Graph

Daily Weather History Graph

Search for Another Location

Airport:

Trip Planner

Search our weather history database for the weather conditions in past years. The results will help you decide how hot, cold, wet, or windy it might be!

Date:

Astronomy

May. 08, 2013 Rise Set
Actual Time 5:38 AM CDT 8:05 PM CDT
Civil Twilight 5:05 AM CDT 8:37 PM CDT
Nautical Twilight 4:26 AM CDT 9:17 PM CDT
Astronomical Twilight 3:41 AM CDT 10:02 PM CDT
Moon 4:48 AM CDT (5/8) 7:01 PM CDT (5/8)
Length of Visible Light 15h 31m
Length of Day
14h 27m
Waning Crescent, 2% of the Moon is Illuminated
May 8
Waning Crescent
May 9
New
May 17
First Quarter
May 24
Full
May 31
Last Quarter

Hourly Weather History & Observations

Time (CDT) Temp. Dew Point Humidity Pressure Visibility Wind Dir Wind Speed Gust Speed Precip Events Conditions
12:15 AM 57.4 °F 41.7 °F 56% 30.03 in 10.0 mi East 3.5 mph - N/A   Clear
12:35 AM 56.5 °F 42.1 °F 59% 30.03 in 10.0 mi Calm Calm - N/A   Clear
12:55 AM 55.4 °F 42.1 °F 61% 30.02 in 10.0 mi East 4.6 mph - N/A   Clear
1:15 AM 55.4 °F 41.9 °F 60% 30.02 in 10.0 mi ESE 3.5 mph - N/A   Clear
1:35 AM 54.5 °F 42.4 °F 64% 30.02 in 10.0 mi East 4.6 mph - N/A   Clear
1:55 AM 54.0 °F 41.5 °F 63% 30.02 in 10.0 mi East 4.6 mph - N/A   Clear
2:15 AM 52.2 °F 43.2 °F 71% 30.02 in 10.0 mi Calm Calm - N/A   Clear
2:35 AM 52.5 °F 42.3 °F 68% 30.02 in 10.0 mi Calm Calm - N/A   Clear
2:55 AM 52.5 °F 42.8 °F 70% 30.02 in 10.0 mi SE 3.5 mph - N/A   Clear
3:15 AM 51.8 °F 42.1 °F 69% 30.02 in 10.0 mi SE 3.5 mph - N/A   Clear
3:35 AM 52.3 °F 39.4 °F 61% 30.03 in 10.0 mi SSE 3.5 mph - N/A   Clear
3:55 AM 52.7 °F 38.1 °F 58% 30.03 in 10.0 mi Calm Calm - N/A   Clear
4:15 AM 50.5 °F 39.4 °F 66% 30.03 in 10.0 mi Calm Calm - N/A   Clear
4:35 AM 51.3 °F 39.2 °F 63% 30.03 in 10.0 mi Calm Calm - N/A   Clear
4:55 AM 50.0 °F 39.6 °F 67% 30.03 in 10.0 mi Calm Calm - N/A   Clear
5:15 AM 48.6 °F 40.6 °F 74% 30.03 in 10.0 mi Calm Calm - N/A   Clear
5:35 AM 48.6 °F 40.1 °F 73% 30.04 in 10.0 mi Calm Calm - N/A   Clear
5:55 AM 49.3 °F 39.2 °F 68% 30.04 in 10.0 mi Calm Calm - N/A   Clear
6:15 AM 51.1 °F 38.3 °F 62% 30.04 in 10.0 mi Calm Calm - N/A   Clear
6:35 AM 52.2 °F 38.7 °F 60% 30.05 in 10.0 mi Calm Calm - N/A   Clear
6:55 AM 53.4 °F 40.5 °F 61% 30.05 in 10.0 mi Calm Calm - N/A   Clear
7:15 AM 54.9 °F 40.1 °F 58% 30.06 in 10.0 mi Calm Calm - N/A   Clear
7:35 AM 56.1 °F 42.1 °F 59% 30.06 in 10.0 mi Calm Calm - N/A   Clear
7:55 AM 56.8 °F 44.4 °F 63% 30.06 in 10.0 mi Calm Calm - N/A   Clear
8:15 AM 59.7 °F 43.0 °F 54% 30.06 in 10.0 mi South 3.5 mph - N/A   Clear
8:35 AM 61.5 °F 40.5 °F 46% 30.06 in 10.0 mi SSE 3.5 mph - N/A   Clear
8:55 AM 63.5 °F 41.0 °F 44% 30.06 in 10.0 mi SSE 4.6 mph - N/A   Clear
9:15 AM 65.1 °F 41.4 °F 42% 30.06 in 10.0 mi SSE 5.8 mph - N/A   Clear
9:35 AM 66.9 °F 39.9 °F 37% 30.06 in 10.0 mi South 5.8 mph - N/A   Clear
9:55 AM 68.0 °F 38.8 °F 34% 30.05 in 10.0 mi SSE 4.6 mph - N/A   Clear
10:15 AM 68.7 °F 37.0 °F 31% 30.05 in 10.0 mi SSW 3.5 mph - N/A   Clear
10:35 AM 69.6 °F 36.3 °F 29% 30.05 in 10.0 mi Calm Calm - N/A   Clear
10:55 AM 70.5 °F 33.4 °F 26% 30.05 in 10.0 mi Calm Calm - N/A   Clear
11:15 AM 71.4 °F 35.2 °F 27% 30.05 in 10.0 mi SSE 4.6 mph - N/A   Clear
11:35 AM 72.3 °F 35.6 °F 26% 30.05 in 10.0 mi SSW 5.8 mph - N/A   Clear
11:55 AM 72.5 °F 36.5 °F 27% 30.04 in 10.0 mi WSW 3.5 mph - N/A   Clear
12:15 PM 73.8 °F 36.9 °F 26% 30.04 in 10.0 mi SE 5.8 mph - N/A   Clear
12:35 PM 73.9 °F 35.1 °F 24% 30.03 in 10.0 mi SW 3.5 mph - N/A   Clear
12:55 PM 74.3 °F 32.5 °F 22% 30.03 in 10.0 mi Calm Calm - N/A   Clear
1:15 PM 75.6 °F 34.3 °F 22% 30.02 in 10.0 mi ESE 5.8 mph - N/A   Clear
1:35 PM 75.9 °F 34.9 °F 22% 30.02 in 10.0 mi Calm Calm - N/A   Clear
1:55 PM 76.3 °F 32.0 °F 20% 30.02 in 10.0 mi West 3.5 mph - N/A   Clear
2:15 PM 77.0 °F 30.9 °F 19% 30.02 in 10.0 mi ESE 3.5 mph - N/A   Clear
2:35 PM 77.0 °F 29.7 °F 18% 30.01 in 10.0 mi Calm Calm - N/A   Scattered Clouds
2:55 PM 75.2 °F 28.0 °F 18% 30.01 in 10.0 mi Calm Calm - N/A   Scattered Clouds
3:35 PM 77.7 °F 30.7 °F 18% 29.99 in 10.0 mi ESE 4.6 mph - N/A   Scattered Clouds
3:55 PM 77.9 °F 32.5 °F 19% 29.98 in 10.0 mi East 6.9 mph - N/A   Mostly Cloudy
4:15 PM 77.7 °F 32.5 °F 19% 29.98 in 10.0 mi East 6.9 mph - N/A   Mostly Cloudy
4:35 PM 77.7 °F 32.5 °F 19% 29.98 in 10.0 mi NE 4.6 mph - N/A   Scattered Clouds
4:55 PM 77.7 °F 27.9 °F 16% 29.98 in 10.0 mi ENE 4.6 mph - N/A   Clear
5:15 PM 77.4 °F 27.0 °F 16% 29.98 in 10.0 mi Calm Calm - N/A   Clear
5:35 PM 77.4 °F 29.5 °F 17% 29.97 in 10.0 mi East 4.6 mph - N/A   Clear
5:55 PM 74.5 °F 33.3 °F 22% 29.97 in 10.0 mi SE 4.6 mph - N/A   Clear
6:15 PM 74.7 °F 33.6 °F 22% 29.97 in 10.0 mi SE 3.5 mph - N/A   Clear
6:35 PM 75.6 °F 34.3 °F 22% 29.97 in 10.0 mi ESE 3.5 mph - N/A   Clear
6:55 PM 74.8 °F 35.1 °F 23% 29.97 in 10.0 mi SE 4.6 mph - N/A   Clear
7:15 PM 73.9 °F 36.1 °F 25% 29.97 in 10.0 mi East 8.1 mph - N/A   Clear
7:35 PM 70.5 °F 38.8 °F 32% 29.98 in 10.0 mi East 5.8 mph - N/A   Clear
7:55 PM 68.2 °F 42.8 °F 40% 29.98 in 10.0 mi East 5.8 mph - N/A   Clear
8:15 PM 67.1 °F 39.4 °F 36% 29.98 in 10.0 mi East 5.8 mph - N/A   Clear
8:35 PM 66.2 °F 39.7 °F 38% 29.98 in 10.0 mi ESE 5.8 mph - N/A   Clear
8:55 PM 65.3 °F 40.1 °F 40% 29.99 in 10.0 mi East 6.9 mph - N/A   Clear
9:15 PM 64.6 °F 41.5 °F 43% 30.00 in 10.0 mi ESE 4.6 mph - N/A   Clear
9:35 PM 63.7 °F 40.3 °F 42% 30.00 in 10.0 mi East 6.9 mph - N/A   Clear
9:55 PM 62.6 °F 41.7 °F 46% 30.00 in 10.0 mi ESE 5.8 mph - N/A   Clear
10:15 PM 61.9 °F 41.0 °F 46% 30.00 in 10.0 mi ESE 4.6 mph - N/A   Clear
10:35 PM 61.7 °F 41.0 °F 47% 30.00 in 10.0 mi SE 4.6 mph - N/A   Clear
10:55 PM 61.7 °F 38.3 °F 42% 29.99 in 10.0 mi SE 5.8 mph - N/A   Clear
11:15 PM 60.3 °F 39.9 °F 47% 29.99 in 10.0 mi ESE 3.5 mph - N/A   Clear
11:55 PM 61.3 °F 38.1 °F 42% 29.98 in 10.0 mi Calm Calm - N/A   Clear